Jacksonville, FL

1:19 AM EST on February 27, 2017 (GMT -0500)
Craig Municipal

Weather History for KCRG - February, 2014

Change the Weather History Date:

Tuesday, February 18, 2014

  Actual Average Record
Temperature  
Mean Temperature 60 °F -  
Max Temperature 75 °F 66 °F 81 °F (2006)
Min Temperature 46 °F 47 °F 28 °F (2013)
Degree Days  
Heating Degree Days 4    
Growing Degree Days 10 (Base 50)    
Moisture  
Dew Point 48 °F    
Average Humidity 74    
Maximum Humidity 90    
Minimum Humidity 44    
Precipitation  
Precipitation 0.00 in - - ()
Sea Level Pressure  
Sea Level Pressure 30.20 in    
Wind  
Wind Speed 1 mph (SSE)    
Max Wind Speed 9 mph    
Max Gust Speed -    
Visibility 7 miles    
Events Fog , Rain    
Averages and records for this station are not official NWS values.
T = Trace of Precipitation, MM = Missing Value Source: NWS Daily Summary

Daily Weather History Graph

Daily Weather History Graph

Search for Another Location

Airport or City:

Trip Planner

Search our weather history database for the weather conditions in past years. The results will help you decide how hot, cold, wet, or windy it might be!

Date:

Astronomy

Feb. 18, 2014 Rise Set
Actual Time 7:03 AM EST 6:16 PM EST
Civil Twilight 6:39 AM EST 6:41 PM EST
Nautical Twilight 6:11 AM EST 7:09 PM EST
Astronomical Twilight 5:43 AM EST 7:37 PM EST
Moon 9:49 PM EST (2/18) 8:52 AM EST (2/18)
Length of Visible Light 12h 02m
Length of Day
11h 13m
Waning Gibbous, 87% of the Moon is Illuminated
Feb 18
Waning Gibbous
Feb 22
Last Quarter
Mar 1
New
Mar 8
First Quarter
Mar 16
Full

Hourly Weather History & Observations

Time (EST) Temp. Dew Point Humidity Pressure Visibility Wind Dir Wind Speed Gust Speed Precip Events Conditions
12:09 AM 52.0 °F 48.0 °F 86% 30.22 in 1.8 mi Calm Calm - N/A   Clear
12:30 AM 48.9 °F 46.0 °F 90% 30.21 in 0.8 mi Calm Calm - N/A   Clear
12:34 AM 48.9 °F 45.0 °F 86% 30.21 in 2.0 mi Calm Calm - N/A   Clear
12:41 AM 48.9 °F 45.0 °F 86% 30.21 in 5.0 mi Calm Calm - N/A   Clear
12:53 AM 50.0 °F 46.0 °F 86% 30.21 in 9.0 mi Calm Calm - N/A   Clear
12:59 AM 50.0 °F 46.0 °F 86% 30.21 in 1.2 mi Calm Calm - N/A   Clear
1:02 AM 50.0 °F 46.0 °F 86% 30.21 in 0.5 mi Calm Calm - N/A Fog Fog
1:11 AM 48.0 °F 45.0 °F 89% 30.21 in 0.2 mi Calm Calm - N/A Fog Fog
1:15 AM 48.0 °F 44.1 °F 86% 30.21 in 0.8 mi Calm Calm - N/A   Clear
1:18 AM 48.0 °F 44.1 °F 86% 30.20 in 2.5 mi Calm Calm - N/A   Clear
1:28 AM 48.0 °F 44.1 °F 86% 30.20 in 0.8 mi SSW 3.5 mph - 0.00 in Rain Light Rain
1:53 AM 46.9 °F 43.0 °F 86% 30.19 in 2.5 mi Calm Calm - 0.00 in   Clear
2:05 AM 48.0 °F 44.1 °F 86% 30.19 in 4.0 mi Calm Calm - N/A   Clear
2:53 AM 48.9 °F 45.0 °F 86% 30.17 in 9.0 mi Calm Calm - N/A   Clear
3:53 AM 50.0 °F 46.0 °F 86% 30.18 in 10.0 mi Calm Calm - N/A   Clear
4:53 AM 48.0 °F 44.1 °F 86% 30.19 in 10.0 mi Calm Calm - N/A   Clear
5:53 AM 48.0 °F 44.1 °F 86% 30.19 in 9.0 mi Calm Calm - N/A   Clear
6:53 AM 46.9 °F 44.1 °F 90% 30.21 in 9.0 mi Calm Calm - N/A   Clear
7:53 AM 51.1 °F 46.0 °F 83% 30.22 in 10.0 mi Calm Calm - N/A   Clear
8:53 AM 60.1 °F 43.0 °F 53% 30.24 in 10.0 mi SW 3.5 mph - N/A   Clear
9:53 AM 64.9 °F 44.1 °F 47% 30.25 in 10.0 mi NW 5.8 mph - N/A   Clear
10:53 AM 69.1 °F 46.0 °F 44% 30.25 in 10.0 mi North 5.8 mph - N/A   Clear
11:53 AM 72.0 °F 53.1 °F 51% 30.24 in 10.0 mi Variable 5.8 mph - N/A   Partly Cloudy
12:53 PM 73.0 °F 54.0 °F 51% 30.22 in 10.0 mi NNW 5.8 mph - N/A   Overcast
1:53 PM 75.9 °F 54.0 °F 46% 30.20 in 10.0 mi Variable 3.5 mph - N/A   Mostly Cloudy
2:53 PM 73.0 °F 52.0 °F 48% 30.19 in 10.0 mi ESE 9.2 mph - N/A   Mostly Cloudy
3:53 PM 72.0 °F 53.1 °F 51% 30.18 in 10.0 mi SE 8.1 mph - N/A   Scattered Clouds
4:53 PM 70.0 °F 54.0 °F 57% 30.19 in 10.0 mi ESE 8.1 mph - N/A   Scattered Clouds
5:53 PM 68.0 °F 55.0 °F 63% 30.19 in 10.0 mi ESE 5.8 mph - N/A   Clear
6:53 PM 64.0 °F 54.0 °F 70% 30.19 in 10.0 mi SE 4.6 mph - N/A   Clear
7:53 PM 63.0 °F 54.0 °F 72% 30.19 in 10.0 mi Calm Calm - N/A   Clear
8:53 PM 61.0 °F 53.1 °F 75% 30.19 in 10.0 mi SSE 3.5 mph - N/A   Clear
9:53 PM 60.1 °F 53.1 °F 78% 30.19 in 10.0 mi South 3.5 mph - N/A   Clear
10:53 PM 62.1 °F 54.0 °F 75% 30.19 in 10.0 mi Calm Calm - N/A   Clear
11:53 PM 61.0 °F 54.0 °F 78% 30.17 in 10.0 mi South 5.8 mph - N/A   Clear